Year,Month,Day,Hour,Minute,Value (Times are PST for temperature in C)
2012,04,20,00,00,8.50
2012,04,20,00,01,8.50
2012,04,20,00,02,8.50
2012,04,20,00,03,8.50
2012,04,20,00,04,8.60
2012,04,20,00,05,8.60
2012,04,20,00,06,8.60
2012,04,20,00,07,8.60
2012,04,20,00,08,8.60
2012,04,20,00,09,8.60
2012,04,20,00,10,8.60
2012,04,20,00,11,8.60
2012,04,20,00,12,8.60
2012,04,20,00,13,8.60
2012,04,20,00,14,8.60
2012,04,20,00,15,8.60
2012,04,20,00,16,8.60
2012,04,20,00,17,8.60
2012,04,20,00,18,8.60
2012,04,20,00,19,8.70
2012,04,20,00,20,8.70
2012,04,20,00,21,8.70
2012,04,20,00,22,8.70
2012,04,20,00,23,8.60
2012,04,20,00,24,8.60
2012,04,20,00,25,8.60
2012,04,20,00,26,8.60
2012,04,20,00,27,8.60
2012,04,20,00,28,8.60
2012,04,20,00,29,8.60
2012,04,20,00,30,8.60
2012,04,20,00,31,8.60
2012,04,20,00,32,8.60
2012,04,20,00,33,8.60
2012,04,20,00,34,8.60
2012,04,20,00,35,8.60
2012,04,20,00,36,8.60
2012,04,20,00,37,8.60
2012,04,20,00,38,8.60
2012,04,20,00,39,8.60
2012,04,20,00,40,8.60
2012,04,20,00,41,8.60
2012,04,20,00,42,8.60
2012,04,20,00,43,8.60
2012,04,20,00,44,8.50
2012,04,20,00,45,8.50
2012,04,20,00,46,8.50
2012,04,20,00,47,8.50
2012,04,20,00,48,8.50
2012,04,20,00,49,8.50
2012,04,20,00,50,8.40
2012,04,20,00,51,8.40
2012,04,20,00,52,8.40
2012,04,20,00,53,8.40
2012,04,20,00,54,8.40
2012,04,20,00,55,8.40
2012,04,20,00,56,8.40
2012,04,20,00,57,8.40
2012,04,20,00,58,8.40
2012,04,20,00,59,8.40
2012,04,20,01,00,8.40
2012,04,20,01,01,8.40
2012,04,20,01,02,8.40
2012,04,20,01,03,8.40
2012,04,20,01,04,8.40
2012,04,20,01,05,8.30
2012,04,20,01,06,8.30
2012,04,20,01,07,8.30
2012,04,20,01,08,8.30
2012,04,20,01,09,8.30
2012,04,20,01,10,8.30
2012,04,20,01,11,8.30
2012,04,20,01,12,8.30
2012,04,20,01,13,8.30
2012,04,20,01,14,8.30
2012,04,20,01,15,8.30
2012,04,20,01,16,8.30
2012,04,20,01,17,8.30
2012,04,20,01,18,8.30
2012,04,20,01,19,8.30
2012,04,20,01,20,8.30
2012,04,20,01,21,8.30
2012,04,20,01,22,8.30
2012,04,20,01,23,8.30
2012,04,20,01,24,8.30
2012,04,20,01,25,8.30
2012,04,20,01,26,8.30
2012,04,20,01,27,8.30
2012,04,20,01,28,8.30
2012,04,20,01,29,8.30
2012,04,20,01,30,8.30
2012,04,20,01,31,8.30
2012,04,20,01,32,8.30
2012,04,20,01,33,8.30
2012,04,20,01,34,8.30
2012,04,20,01,35,8.30
2012,04,20,01,36,8.30
2012,04,20,01,37,8.30
2012,04,20,01,38,8.30
2012,04,20,01,39,8.30
2012,04,20,01,40,8.30
2012,04,20,01,41,8.30
2012,04,20,01,42,8.30
2012,04,20,01,43,8.30
2012,04,20,01,44,8.30
2012,04,20,01,45,8.30
2012,04,20,01,46,8.30
2012,04,20,01,47,8.30
2012,04,20,01,48,8.30
2012,04,20,01,49,8.30
2012,04,20,01,50,8.20
2012,04,20,01,51,8.20
2012,04,20,01,52,8.20
2012,04,20,01,53,8.20
2012,04,20,01,54,8.20
2012,04,20,01,55,8.20
2012,04,20,01,56,8.20
2012,04,20,01,57,8.20
2012,04,20,01,58,8.10
2012,04,20,01,59,8.10
2012,04,20,02,00,8.10
2012,04,20,02,01,8.10
2012,04,20,02,02,8.10
2012,04,20,02,03,8.00
2012,04,20,02,04,8.00
2012,04,20,02,05,8.00
2012,04,20,02,06,7.90
2012,04,20,02,07,7.90
2012,04,20,02,08,7.90
2012,04,20,02,09,7.80
2012,04,20,02,10,7.70
2012,04,20,02,11,7.70
2012,04,20,02,12,7.60
2012,04,20,02,13,7.60
2012,04,20,02,14,7.60
2012,04,20,02,15,7.50
2012,04,20,02,16,7.50
2012,04,20,02,17,7.40
2012,04,20,02,18,7.40
2012,04,20,02,19,7.40
2012,04,20,02,20,7.40
2012,04,20,02,21,7.30
2012,04,20,02,22,7.30
2012,04,20,02,23,7.30
2012,04,20,02,24,7.20
2012,04,20,02,25,7.20
2012,04,20,02,26,7.20
2012,04,20,02,27,7.20
2012,04,20,02,28,7.10
2012,04,20,02,29,7.10
2012,04,20,02,30,7.10
2012,04,20,02,31,7.10
2012,04,20,02,32,7.00
2012,04,20,02,33,7.00
2012,04,20,02,34,7.00
2012,04,20,02,35,6.90
2012,04,20,02,36,6.90
2012,04,20,02,37,6.90
2012,04,20,02,38,6.90
2012,04,20,02,39,6.90
2012,04,20,02,40,6.90
2012,04,20,02,41,6.90
2012,04,20,02,42,6.90
2012,04,20,02,43,6.90
2012,04,20,02,44,6.90
2012,04,20,02,45,6.90
2012,04,20,02,46,6.90
2012,04,20,02,47,6.90
2012,04,20,02,48,6.90
2012,04,20,02,49,6.90
2012,04,20,02,50,6.90
2012,04,20,02,51,6.90
2012,04,20,02,52,6.90
2012,04,20,02,53,6.90
2012,04,20,02,54,6.90
2012,04,20,02,55,6.90
2012,04,20,02,56,6.90
2012,04,20,02,57,6.80
2012,04,20,02,58,6.80
2012,04,20,02,59,6.80
2012,04,20,03,00,6.80
2012,04,20,03,01,6.80
2012,04,20,03,02,6.80
2012,04,20,03,03,6.70
2012,04,20,03,04,6.70
2012,04,20,03,05,6.70
2012,04,20,03,06,6.70
2012,04,20,03,07,6.70
2012,04,20,03,08,6.70
2012,04,20,03,09,6.70
2012,04,20,03,10,6.70
2012,04,20,03,11,6.70
2012,04,20,03,12,6.70
2012,04,20,03,13,6.70
2012,04,20,03,14,6.70
2012,04,20,03,15,6.70
2012,04,20,03,16,6.70
2012,04,20,03,17,6.70
2012,04,20,03,18,6.70
2012,04,20,03,19,6.70
2012,04,20,03,20,6.70
2012,04,20,03,21,6.70
2012,04,20,03,22,6.70
2012,04,20,03,23,6.80
2012,04,20,03,24,6.80
2012,04,20,03,25,6.80
2012,04,20,03,26,6.80
2012,04,20,03,27,6.80
2012,04,20,03,28,6.70
2012,04,20,03,29,6.70
2012,04,20,03,30,6.70
2012,04,20,03,31,6.80
2012,04,20,03,32,6.80
2012,04,20,03,33,6.80
2012,04,20,03,34,6.90
2012,04,20,03,35,6.90
2012,04,20,03,36,7.00
2012,04,20,03,37,7.00
2012,04,20,03,38,7.00
2012,04,20,03,39,7.00
2012,04,20,03,40,7.00
2012,04,20,03,41,7.00
2012,04,20,03,42,7.00
2012,04,20,03,43,7.00
2012,04,20,03,44,7.00
2012,04,20,03,45,6.90
2012,04,20,03,46,6.90
2012,04,20,03,47,6.90
2012,04,20,03,48,6.90
2012,04,20,03,49,6.90
2012,04,20,03,50,6.80
2012,04,20,03,51,6.80
2012,04,20,03,52,6.80
2012,04,20,03,53,6.80
2012,04,20,03,54,6.70
2012,04,20,03,55,6.70
2012,04,20,03,56,6.70
2012,04,20,03,57,6.70
2012,04,20,03,58,6.60
2012,04,20,03,59,6.60
2012,04,20,04,00,6.50
2012,04,20,04,01,6.50
2012,04,20,04,02,6.40
2012,04,20,04,03,6.40
2012,04,20,04,04,6.40
2012,04,20,04,05,6.40
2012,04,20,04,06,6.50
2012,04,20,04,07,6.50
2012,04,20,04,08,6.60
2012,04,20,04,09,6.60
2012,04,20,04,10,6.60
2012,04,20,04,11,6.60
2012,04,20,04,12,6.50
2012,04,20,04,13,6.40
2012,04,20,04,14,6.40
2012,04,20,04,15,6.30
2012,04,20,04,16,6.30
2012,04,20,04,17,6.30
2012,04,20,04,18,6.30
2012,04,20,04,19,6.40
2012,04,20,04,20,6.40
2012,04,20,04,21,6.40
2012,04,20,04,22,6.40
2012,04,20,04,23,6.50
2012,04,20,04,24,6.60
2012,04,20,04,25,6.70
2012,04,20,04,26,6.80
2012,04,20,04,27,6.90
2012,04,20,04,28,7.00
2012,04,20,04,29,7.00
2012,04,20,04,30,7.10
2012,04,20,04,31,7.20
2012,04,20,04,32,7.30
2012,04,20,04,33,7.40
2012,04,20,04,34,7.60
2012,04,20,04,35,7.70
2012,04,20,04,36,7.80
2012,04,20,04,37,7.90
2012,04,20,04,38,7.90
2012,04,20,04,39,8.00
2012,04,20,04,40,8.10
2012,04,20,04,41,8.10
2012,04,20,04,42,8.10
2012,04,20,04,43,8.10
2012,04,20,04,44,8.10
2012,04,20,04,45,8.10
2012,04,20,04,46,8.10
2012,04,20,04,47,8.10
2012,04,20,04,48,8.00
2012,04,20,04,49,8.00
2012,04,20,04,50,7.90
2012,04,20,04,51,7.90
2012,04,20,04,52,7.80
2012,04,20,04,53,7.80
2012,04,20,04,54,7.70
2012,04,20,04,55,7.70
2012,04,20,04,56,7.70
2012,04,20,04,57,7.70
2012,04,20,04,58,7.60
2012,04,20,04,59,7.60
2012,04,20,05,00,7.60
2012,04,20,05,01,7.60
2012,04,20,05,02,7.50
2012,04,20,05,03,7.50
2012,04,20,05,04,7.50
2012,04,20,05,05,7.50
2012,04,20,05,06,7.50
2012,04,20,05,07,7.50
2012,04,20,05,08,7.50
2012,04,20,05,09,7.50
2012,04,20,05,10,7.40
2012,04,20,05,11,7.40
2012,04,20,05,12,7.40
2012,04,20,05,13,7.30
2012,04,20,05,14,7.30
2012,04,20,05,15,7.20
2012,04,20,05,16,7.20
2012,04,20,05,17,7.10
2012,04,20,05,18,7.10
2012,04,20,05,19,7.10
2012,04,20,05,20,7.10
2012,04,20,05,21,7.10
2012,04,20,05,22,7.10
2012,04,20,05,23,7.10
2012,04,20,05,24,7.10
2012,04,20,05,25,7.10
2012,04,20,05,26,7.00
2012,04,20,05,27,7.00
2012,04,20,05,28,6.90
2012,04,20,05,29,6.90
2012,04,20,05,30,6.90
2012,04,20,05,31,6.90
2012,04,20,05,32,6.80
2012,04,20,05,33,6.80
2012,04,20,05,34,6.70
2012,04,20,05,35,6.70
2012,04,20,05,36,6.70
2012,04,20,05,37,6.60
2012,04,20,05,38,6.60
2012,04,20,05,39,6.60
2012,04,20,05,40,6.60
2012,04,20,05,41,6.70
2012,04,20,05,42,6.70
2012,04,20,05,43,6.70
2012,04,20,05,44,6.70
2012,04,20,05,45,6.70
2012,04,20,05,46,6.70
2012,04,20,05,47,6.60
2012,04,20,05,48,6.60
2012,04,20,05,49,6.60
2012,04,20,05,50,6.50
2012,04,20,05,51,6.50
2012,04,20,05,52,6.40
2012,04,20,05,53,6.40
2012,04,20,05,54,6.40
2012,04,20,05,55,6.30
2012,04,20,05,56,6.30
2012,04,20,05,57,6.30
2012,04,20,05,58,6.30
2012,04,20,05,59,6.20
2012,04,20,06,00,6.20
2012,04,20,06,01,6.20
2012,04,20,06,02,6.10
2012,04,20,06,03,6.10
2012,04,20,06,04,6.10
2012,04,20,06,05,6.00
2012,04,20,06,06,6.00
2012,04,20,06,07,5.90
2012,04,20,06,08,5.80
2012,04,20,06,09,5.70
2012,04,20,06,10,5.70
2012,04,20,06,11,5.60
2012,04,20,06,12,5.50
2012,04,20,06,13,5.50
2012,04,20,06,14,5.40
2012,04,20,06,15,5.40
2012,04,20,06,16,5.40
2012,04,20,06,17,5.30
2012,04,20,06,18,5.30
2012,04,20,06,19,5.20
2012,04,20,06,20,5.20
2012,04,20,06,21,5.10
2012,04,20,06,22,5.00
2012,04,20,06,23,5.00
2012,04,20,06,24,4.90
2012,04,20,06,25,4.90
2012,04,20,06,26,4.90
2012,04,20,06,27,4.90
2012,04,20,06,28,4.90
2012,04,20,06,29,5.00
2012,04,20,06,30,5.10
2012,04,20,06,31,5.10
2012,04,20,06,32,5.20
2012,04,20,06,33,5.20
2012,04,20,06,34,5.20
2012,04,20,06,35,5.20
2012,04,20,06,36,5.20
2012,04,20,06,37,5.20
2012,04,20,06,38,5.10
2012,04,20,06,39,5.10
2012,04,20,06,40,5.00
2012,04,20,06,41,5.00
2012,04,20,06,42,5.00
2012,04,20,06,43,4.90
2012,04,20,06,44,5.00
2012,04,20,06,45,5.00
2012,04,20,06,46,5.00
2012,04,20,06,47,5.10
2012,04,20,06,48,5.10
2012,04,20,06,49,5.10
2012,04,20,06,50,5.10
2012,04,20,06,51,5.10
2012,04,20,06,52,5.10
2012,04,20,06,53,5.20
2012,04,20,06,54,5.20
2012,04,20,06,55,5.20
2012,04,20,06,56,5.20
2012,04,20,06,57,5.20
2012,04,20,06,58,5.30
2012,04,20,06,59,5.40
2012,04,20,07,00,5.40
2012,04,20,07,01,5.50
2012,04,20,07,02,5.50
2012,04,20,07,03,5.60
2012,04,20,07,04,5.70
2012,04,20,07,05,5.80
2012,04,20,07,06,5.90
2012,04,20,07,07,6.10
2012,04,20,07,08,6.20
2012,04,20,07,09,6.40
2012,04,20,07,10,6.50
2012,04,20,07,11,6.60
2012,04,20,07,12,6.80
2012,04,20,07,13,6.90
2012,04,20,07,14,7.00
2012,04,20,07,15,7.10
2012,04,20,07,16,7.10
2012,04,20,07,17,7.20
2012,04,20,07,18,7.20
2012,04,20,07,19,7.30
2012,04,20,07,20,7.40
2012,04,20,07,21,7.50
2012,04,20,07,22,7.60
2012,04,20,07,23,7.70
2012,04,20,07,24,7.70
2012,04,20,07,25,7.80
2012,04,20,07,26,7.80
2012,04,20,07,27,7.80
2012,04,20,07,28,7.90
2012,04,20,07,29,7.90
2012,04,20,07,30,8.00
2012,04,20,07,31,8.00
2012,04,20,07,32,8.00
2012,04,20,07,33,8.10
2012,04,20,07,34,8.10
2012,04,20,07,35,8.10
2012,04,20,07,36,8.20
2012,04,20,07,37,8.20
2012,04,20,07,38,8.20
2012,04,20,07,39,8.30
2012,04,20,07,40,8.30
2012,04,20,07,41,8.30
2012,04,20,07,42,8.40
2012,04,20,07,43,8.40
2012,04,20,07,44,8.40
2012,04,20,07,45,8.30
2012,04,20,07,46,8.30
2012,04,20,07,47,8.30
2012,04,20,07,48,8.20
2012,04,20,07,49,8.20
2012,04,20,07,50,8.20
2012,04,20,07,51,8.20
2012,04,20,07,52,8.20
2012,04,20,07,53,8.30
2012,04,20,07,54,8.30
2012,04,20,07,55,8.30
2012,04,20,07,56,8.30
2012,04,20,07,57,8.40
2012,04,20,07,58,8.40
2012,04,20,07,59,8.50
2012,04,20,08,00,8.50
2012,04,20,08,01,8.60
2012,04,20,08,02,8.60
2012,04,20,08,03,8.70
2012,04,20,08,04,8.80
2012,04,20,08,05,8.80
2012,04,20,08,06,8.80
2012,04,20,08,07,8.90
2012,04,20,08,08,9.00
2012,04,20,08,09,9.00
2012,04,20,08,10,9.10
2012,04,20,08,11,9.20
2012,04,20,08,12,9.30
2012,04,20,08,13,9.30
2012,04,20,08,14,9.40
2012,04,20,08,15,9.50
2012,04,20,08,16,9.60
2012,04,20,08,17,9.60
2012,04,20,08,18,9.70
2012,04,20,08,19,9.80
2012,04,20,08,20,9.80
2012,04,20,08,21,9.80
2012,04,20,08,22,9.90
2012,04,20,08,23,9.90
2012,04,20,08,24,9.90
2012,04,20,08,25,10.00
2012,04,20,08,26,10.00
2012,04,20,08,27,9.90
2012,04,20,08,28,9.90
2012,04,20,08,29,9.90
2012,04,20,08,30,9.90
2012,04,20,08,31,9.90
2012,04,20,08,32,9.90
2012,04,20,08,33,9.90
2012,04,20,08,34,9.80
2012,04,20,08,35,9.80
2012,04,20,08,36,9.80
2012,04,20,08,37,9.80
2012,04,20,08,38,9.80
2012,04,20,08,39,9.80
2012,04,20,08,40,9.80
2012,04,20,08,41,9.90
2012,04,20,08,42,9.90
2012,04,20,08,43,10.00
2012,04,20,08,44,10.00
2012,04,20,08,45,10.10
2012,04,20,08,46,10.10
2012,04,20,08,47,10.20
2012,04,20,08,48,10.20
2012,04,20,08,49,10.30
2012,04,20,08,50,10.30
2012,04,20,08,51,10.30
2012,04,20,08,52,10.30
2012,04,20,08,53,10.30
2012,04,20,08,54,10.40
2012,04,20,08,55,10.40
2012,04,20,08,56,10.50
2012,04,20,08,57,10.60
2012,04,20,08,58,10.60
2012,04,20,08,59,10.60
2012,04,20,09,00,10.60
2012,04,20,09,01,10.60
2012,04,20,09,02,10.50
2012,04,20,09,03,10.50
2012,04,20,09,04,10.40
2012,04,20,09,05,10.40
2012,04,20,09,06,10.40
2012,04,20,09,07,10.50
2012,04,20,09,08,10.50
2012,04,20,09,09,10.50
2012,04,20,09,10,10.60
2012,04,20,09,11,10.60
2012,04,20,09,12,10.60
2012,04,20,09,13,10.70
2012,04,20,09,14,10.70
2012,04,20,09,15,10.80
2012,04,20,09,16,10.80
2012,04,20,09,17,10.90
2012,04,20,09,18,10.90
2012,04,20,09,19,10.90
2012,04,20,09,20,10.90
2012,04,20,09,21,10.90
2012,04,20,09,22,10.90
2012,04,20,09,23,10.80
2012,04,20,09,24,10.80
2012,04,20,09,25,10.80
2012,04,20,09,26,10.80
2012,04,20,09,27,10.80
2012,04,20,09,28,10.80
2012,04,20,09,29,10.80
2012,04,20,09,30,10.80
2012,04,20,09,31,10.80
2012,04,20,09,32,10.80
2012,04,20,09,33,10.90
2012,04,20,09,34,10.90
2012,04,20,09,35,11.00
2012,04,20,09,36,11.00
2012,04,20,09,37,11.10
2012,04,20,09,38,11.20
2012,04,20,09,39,11.30
2012,04,20,09,40,11.30
2012,04,20,09,41,11.30
2012,04,20,09,42,11.30
2012,04,20,09,43,11.30
2012,04,20,09,44,11.30
2012,04,20,09,45,11.30
2012,04,20,09,46,11.30
2012,04,20,09,47,11.40
2012,04,20,09,48,11.40
2012,04,20,09,49,11.30
2012,04,20,09,50,11.30
2012,04,20,09,51,11.30
2012,04,20,09,52,11.30
2012,04,20,09,53,11.40
2012,04,20,09,54,11.50
2012,04,20,09,55,11.50
2012,04,20,09,56,11.60
2012,04,20,09,57,11.70
2012,04,20,09,58,11.70
2012,04,20,09,59,11.80
2012,04,20,10,00,11.80
2012,04,20,10,01,11.80
2012,04,20,10,02,11.90
2012,04,20,10,03,11.90
2012,04,20,10,04,12.00
2012,04,20,10,05,12.00
2012,04,20,10,06,12.10
2012,04,20,10,07,12.20
2012,04,20,10,08,12.20
2012,04,20,10,09,12.20
2012,04,20,10,10,12.20
2012,04,20,10,11,12.20
2012,04,20,10,12,12.20
2012,04,20,10,13,12.10
2012,04,20,10,14,12.00
2012,04,20,10,15,12.00
2012,04,20,10,16,12.00
2012,04,20,10,17,11.90
2012,04,20,10,18,11.90
2012,04,20,10,19,11.90
2012,04,20,10,20,11.90
2012,04,20,10,21,11.90
2012,04,20,10,22,11.90
2012,04,20,10,23,11.90
2012,04,20,10,24,11.90
2012,04,20,10,25,11.90
2012,04,20,10,26,11.90
2012,04,20,10,27,11.90
2012,04,20,10,28,11.90
2012,04,20,10,29,12.00
2012,04,20,10,30,12.10
2012,04,20,10,31,12.20
2012,04,20,10,32,12.20
2012,04,20,10,33,12.10
2012,04,20,10,34,12.10
2012,04,20,10,35,12.10
2012,04,20,10,36,12.10
2012,04,20,10,37,12.20
2012,04,20,10,38,12.30
2012,04,20,10,39,12.30
2012,04,20,10,40,12.40
2012,04,20,10,41,12.50
2012,04,20,10,42,12.50
2012,04,20,10,43,12.60
2012,04,20,10,44,12.60
2012,04,20,10,45,12.50
2012,04,20,10,46,12.50
2012,04,20,10,47,12.50
2012,04,20,10,48,12.60
2012,04,20,10,49,12.70
2012,04,20,10,50,12.70
2012,04,20,10,51,12.60
2012,04,20,10,52,12.60
2012,04,20,10,53,12.70
2012,04,20,10,54,12.60
2012,04,20,10,55,12.50
2012,04,20,10,56,12.40
2012,04,20,10,57,12.40
2012,04,20,10,58,12.30
2012,04,20,10,59,12.30
2012,04,20,11,00,12.30
2012,04,20,11,01,12.30
2012,04,20,11,02,12.20
2012,04,20,11,03,12.20
2012,04,20,11,04,12.20
2012,04,20,11,05,12.10
2012,04,20,11,06,12.10
2012,04,20,11,07,12.10
2012,04,20,11,08,12.10
2012,04,20,11,09,12.10
2012,04,20,11,10,12.10
2012,04,20,11,11,12.20
2012,04,20,11,12,12.20
2012,04,20,11,13,12.20
2012,04,20,11,14,12.10
2012,04,20,11,15,12.10
2012,04,20,11,16,12.10
2012,04,20,11,17,12.20
2012,04,20,11,18,12.20
2012,04,20,11,19,12.20
2012,04,20,11,20,12.20
2012,04,20,11,21,12.20
2012,04,20,11,22,12.30
2012,04,20,11,23,12.30
2012,04,20,11,24,12.30
2012,04,20,11,25,12.30
2012,04,20,11,26,12.30
2012,04,20,11,27,12.20
2012,04,20,11,28,12.20
2012,04,20,11,29,12.20
2012,04,20,11,30,12.20
2012,04,20,11,31,12.30
2012,04,20,11,32,12.40
2012,04,20,11,33,12.40
2012,04,20,11,34,12.30
2012,04,20,11,35,12.30
2012,04,20,11,36,12.30
2012,04,20,11,37,12.20
2012,04,20,11,38,11.90
2012,04,20,11,39,11.70
2012,04,20,11,40,11.60
2012,04,20,11,41,11.60
2012,04,20,11,42,11.50
2012,04,20,11,43,11.50
2012,04,20,11,44,11.60
2012,04,20,11,45,11.60
2012,04,20,11,46,11.70
2012,04,20,11,47,11.80
2012,04,20,11,48,11.90
2012,04,20,11,49,11.90
2012,04,20,11,50,12.00
2012,04,20,11,51,12.10
2012,04,20,11,52,12.30
2012,04,20,11,53,12.40
2012,04,20,11,54,12.40
2012,04,20,11,55,12.50
2012,04,20,11,56,12.50
2012,04,20,11,57,12.60
2012,04,20,11,58,12.50
2012,04,20,11,59,12.50
2012,04,20,12,00,12.60
2012,04,20,12,01,12.60
2012,04,20,12,02,12.60
2012,04,20,12,03,12.60
2012,04,20,12,04,12.60
2012,04,20,12,05,12.60
2012,04,20,12,06,12.60
2012,04,20,12,07,12.50
2012,04,20,12,08,12.40
2012,04,20,12,09,12.30
2012,04,20,12,10,12.30
2012,04,20,12,11,12.40
2012,04,20,12,12,12.40
2012,04,20,12,13,12.40
2012,04,20,12,14,12.30
2012,04,20,12,15,12.20
2012,04,20,12,16,12.20
2012,04,20,12,17,12.20
2012,04,20,12,18,12.20
2012,04,20,12,19,12.10
2012,04,20,12,20,12.10
2012,04,20,12,21,12.10
2012,04,20,12,22,12.00
2012,04,20,12,23,11.80
2012,04,20,12,24,11.60
2012,04,20,12,25,11.70
2012,04,20,12,26,11.70
2012,04,20,12,27,11.70
2012,04,20,12,28,11.80
2012,04,20,12,29,11.80
2012,04,20,12,30,11.90
2012,04,20,12,31,12.00
2012,04,20,12,32,12.20
2012,04,20,12,33,12.30
2012,04,20,12,34,12.40
2012,04,20,12,35,12.50
2012,04,20,12,36,12.60
2012,04,20,12,37,12.70
2012,04,20,12,38,12.80
2012,04,20,12,39,12.80
2012,04,20,12,40,12.80
2012,04,20,12,41,12.80
2012,04,20,12,42,12.80
2012,04,20,12,43,12.80
2012,04,20,12,44,12.70
2012,04,20,12,45,12.70
2012,04,20,12,46,12.70
2012,04,20,12,47,12.70
2012,04,20,12,48,12.70
2012,04,20,12,49,12.70
2012,04,20,12,50,12.60
2012,04,20,12,51,12.60
2012,04,20,12,52,12.60
2012,04,20,12,53,12.70
2012,04,20,12,54,12.80
2012,04,20,12,55,12.70
2012,04,20,12,56,12.70
2012,04,20,12,57,12.70
2012,04,20,12,58,12.80
2012,04,20,12,59,12.80
2012,04,20,13,00,12.80
2012,04,20,13,01,12.80
2012,04,20,13,02,12.80
2012,04,20,13,03,12.80
2012,04,20,13,04,12.90
2012,04,20,13,05,13.00
2012,04,20,13,06,13.00
2012,04,20,13,07,13.10
2012,04,20,13,08,13.20
2012,04,20,13,09,13.30
2012,04,20,13,10,13.20
2012,04,20,13,11,13.20
2012,04,20,13,12,13.20
2012,04,20,13,13,13.10
2012,04,20,13,14,13.00
2012,04,20,13,15,13.00
2012,04,20,13,16,13.00
2012,04,20,13,17,13.00
2012,04,20,13,18,13.10
2012,04,20,13,19,13.00
2012,04,20,13,20,13.10
2012,04,20,13,21,13.10
2012,04,20,13,22,13.20
2012,04,20,13,23,13.20
2012,04,20,13,24,13.20
2012,04,20,13,25,13.20
2012,04,20,13,26,13.10
2012,04,20,13,27,13.00
2012,04,20,13,28,13.10
2012,04,20,13,29,13.20
2012,04,20,13,30,13.20
2012,04,20,13,31,13.10
2012,04,20,13,32,13.10
2012,04,20,13,33,13.10
2012,04,20,13,34,13.20
2012,04,20,13,35,13.30
2012,04,20,13,36,13.30
2012,04,20,13,37,13.40
2012,04,20,13,38,13.40
2012,04,20,13,39,13.40
2012,04,20,13,40,13.30
2012,04,20,13,41,13.30
2012,04,20,13,42,13.40
2012,04,20,13,43,13.40
2012,04,20,13,44,13.40
2012,04,20,13,45,13.40
2012,04,20,13,46,13.30
2012,04,20,13,47,13.30
2012,04,20,13,48,13.30
2012,04,20,13,49,13.40
2012,04,20,13,50,13.40
2012,04,20,13,51,13.30
2012,04,20,13,52,13.30
2012,04,20,13,53,13.20
2012,04,20,13,54,13.20
2012,04,20,13,55,13.30
2012,04,20,13,56,13.30
2012,04,20,13,57,13.40
2012,04,20,13,58,13.40
2012,04,20,13,59,13.50
2012,04,20,14,00,13.50
2012,04,20,14,01,13.50
2012,04,20,14,02,13.50
2012,04,20,14,03,13.40
2012,04,20,14,04,13.30
2012,04,20,14,05,13.40
2012,04,20,14,06,13.40
2012,04,20,14,07,13.50
2012,04,20,14,08,13.50
2012,04,20,14,09,13.50
2012,04,20,14,10,13.50
2012,04,20,14,11,13.60
2012,04,20,14,12,13.60
2012,04,20,14,13,13.70
2012,04,20,14,14,13.90
2012,04,20,14,15,14.00
2012,04,20,14,16,14.00
2012,04,20,14,17,14.10
2012,04,20,14,18,14.10
2012,04,20,14,19,14.10
2012,04,20,14,20,13.90
2012,04,20,14,21,13.70
2012,04,20,14,22,13.50
2012,04,20,14,23,13.40
2012,04,20,14,24,13.30
2012,04,20,14,25,13.30
2012,04,20,14,26,13.40
2012,04,20,14,27,13.50
2012,04,20,14,28,13.50
2012,04,20,14,29,13.60
2012,04,20,14,30,13.60
2012,04,20,14,31,13.60
2012,04,20,14,32,13.50
2012,04,20,14,33,13.50
2012,04,20,14,34,13.50
2012,04,20,14,35,13.60
2012,04,20,14,36,13.70
2012,04,20,14,37,13.70
2012,04,20,14,38,13.80
2012,04,20,14,39,13.90
2012,04,20,14,40,14.00
2012,04,20,14,41,14.10
2012,04,20,14,42,14.10
2012,04,20,14,43,14.30
2012,04,20,14,44,14.40
2012,04,20,14,45,14.40
2012,04,20,14,46,14.40
2012,04,20,14,47,14.30
2012,04,20,14,48,14.20
2012,04,20,14,49,14.20
2012,04,20,14,50,14.20
2012,04,20,14,51,14.20
2012,04,20,14,52,14.20
2012,04,20,14,53,14.20
2012,04,20,14,54,14.30
2012,04,20,14,55,14.30
2012,04,20,14,56,14.30
2012,04,20,14,57,14.30
2012,04,20,14,58,14.30
2012,04,20,14,59,14.30
2012,04,20,15,00,14.30
2012,04,20,15,01,14.30
2012,04,20,15,02,14.30
2012,04,20,15,03,14.30
2012,04,20,15,04,14.20
2012,04,20,15,05,14.20
2012,04,20,15,06,14.10
2012,04,20,15,07,14.00
2012,04,20,15,08,14.00
2012,04,20,15,09,14.00
2012,04,20,15,10,14.00
2012,04,20,15,11,14.10
2012,04,20,15,12,14.20
2012,04,20,15,13,14.30
2012,04,20,15,14,14.30
2012,04,20,15,15,14.30
2012,04,20,15,16,14.20
2012,04,20,15,17,14.20
2012,04,20,15,18,14.30
2012,04,20,15,19,14.20
2012,04,20,15,20,14.20
2012,04,20,15,21,14.30
2012,04,20,15,22,14.40
2012,04,20,15,23,14.60
2012,04,20,15,24,14.70
2012,04,20,15,25,14.70
2012,04,20,15,26,14.60
2012,04,20,15,27,14.40
2012,04,20,15,28,14.30
2012,04,20,15,29,14.30
2012,04,20,15,30,14.40
2012,04,20,15,31,14.60
2012,04,20,15,32,14.70
2012,04,20,15,33,14.70
2012,04,20,15,34,14.50
2012,04,20,15,35,14.40
2012,04,20,15,36,14.40
2012,04,20,15,37,14.40
2012,04,20,15,38,14.50
2012,04,20,15,39,14.60
2012,04,20,15,40,14.60
2012,04,20,15,41,14.60
2012,04,20,15,42,14.70
2012,04,20,15,43,14.70
2012,04,20,15,44,14.70
2012,04,20,15,45,14.70
2012,04,20,15,46,14.70
2012,04,20,15,47,14.70
2012,04,20,15,48,14.70
2012,04,20,15,49,14.70
2012,04,20,15,50,14.70
2012,04,20,15,51,14.70
2012,04,20,15,52,14.60
2012,04,20,15,53,14.60
2012,04,20,15,54,14.50
2012,04,20,15,55,14.40
2012,04,20,15,56,14.40
2012,04,20,15,57,14.40
2012,04,20,15,58,14.40
2012,04,20,15,59,14.50
2012,04,20,16,00,14.60
2012,04,20,16,01,14.70
2012,04,20,16,02,14.70
2012,04,20,16,03,14.70
2012,04,20,16,04,14.70
2012,04,20,16,05,14.70
2012,04,20,16,06,14.70
2012,04,20,16,07,14.60
2012,04,20,16,08,14.60
2012,04,20,16,09,14.60
2012,04,20,16,10,14.60
2012,04,20,16,11,14.50
2012,04,20,16,12,14.40
2012,04,20,16,13,14.40
2012,04,20,16,14,14.50
2012,04,20,16,15,14.60
2012,04,20,16,16,14.60
2012,04,20,16,17,14.60
2012,04,20,16,18,14.70
2012,04,20,16,19,14.70
2012,04,20,16,20,14.80
2012,04,20,16,21,14.80
2012,04,20,16,22,14.70
2012,04,20,16,23,14.50
2012,04,20,16,24,14.20
2012,04,20,16,25,14.00
2012,04,20,16,26,13.90
2012,04,20,16,27,13.80
2012,04,20,16,28,13.70
2012,04,20,16,29,13.70
2012,04,20,16,30,13.70
2012,04,20,16,31,13.70
2012,04,20,16,32,13.80
2012,04,20,16,33,13.80
2012,04,20,16,34,13.80
2012,04,20,16,35,13.70
2012,04,20,16,36,13.70
2012,04,20,16,37,13.70
2012,04,20,16,38,13.60
2012,04,20,16,39,13.60
2012,04,20,16,40,13.60
2012,04,20,16,41,13.60
2012,04,20,16,42,13.60
2012,04,20,16,43,13.60
2012,04,20,16,44,13.60
2012,04,20,16,45,13.60
2012,04,20,16,46,13.60
2012,04,20,16,47,13.50
2012,04,20,16,48,13.40
2012,04,20,16,49,13.30
2012,04,20,16,50,13.30
2012,04,20,16,51,13.30
2012,04,20,16,52,13.20
2012,04,20,16,53,13.20
2012,04,20,16,54,13.30
2012,04,20,16,55,13.30
2012,04,20,16,56,13.30
2012,04,20,16,57,13.30
2012,04,20,16,58,13.30
2012,04,20,16,59,13.20
2012,04,20,17,00,13.20
2012,04,20,17,01,13.20
2012,04,20,17,02,13.20
2012,04,20,17,03,13.20
2012,04,20,17,04,13.20
2012,04,20,17,05,13.30
2012,04,20,17,06,13.30
2012,04,20,17,07,13.30
2012,04,20,17,08,13.40
2012,04,20,17,09,13.40
2012,04,20,17,10,13.40
2012,04,20,17,11,13.40
2012,04,20,17,12,13.40
2012,04,20,17,13,13.30
2012,04,20,17,14,13.30
2012,04,20,17,15,13.30
2012,04,20,17,16,13.20
2012,04,20,17,17,13.20
2012,04,20,17,18,13.20
2012,04,20,17,19,13.10
2012,04,20,17,20,13.10
2012,04,20,17,21,13.10
2012,04,20,17,22,13.20
2012,04,20,17,23,13.20
2012,04,20,17,24,13.20
2012,04,20,17,25,13.20
2012,04,20,17,26,13.10
2012,04,20,17,27,13.10
2012,04,20,17,28,13.00
2012,04,20,17,29,13.00
2012,04,20,17,30,13.00
2012,04,20,17,31,13.00
2012,04,20,17,32,13.00
2012,04,20,17,33,13.00
2012,04,20,17,34,13.10
2012,04,20,17,35,13.00
2012,04,20,17,36,13.00
2012,04,20,17,37,13.00
2012,04,20,17,38,13.00
2012,04,20,17,39,12.90
2012,04,20,17,40,12.90
2012,04,20,17,41,12.90
2012,04,20,17,42,13.00